150P/LONEOS (2024)

Japanese version
Home page
Updated on December 18, 2022

---------------------------------------------------------------------

* Profile

* Orbital Elements

Epoch 2022 Aug. 9.0 TT = JDT 2459800.5
T 2024 Mar. 12.44748 TT                                 Rudenko
q   1.7503035            (2000.0)            P               Q
n   0.12910384     Peri.  245.78660     -0.87991372     -0.35363598
a   3.8771262      Node   272.19841     +0.46078259     -0.79803044
e   0.5485565      Incl.   18.51519     -0.11589327     -0.48794365
P   7.63
From 504 observations 1978 Mar. 6-2022 Sept. 2, mean residual 0".6.

* Finding Charts

* Magnitudes Graph

        H = 14.5  G = 0.15

---------------------------------------------------------------------

The orbital elements are published on M.P.E.C. 2022-R68.
The charts are made with StellaNavigator Ver.10 (AstroArts).
The magnitudes graphs are made with Comet for Windows.

---------------------------------------------------------------------

Copyright(C) Seiichi Yoshida (comet@aerith.net). All rights reserved.